Notices

What's New in latest Release from April 7th, 2021:

- Updated Glossary, including Speed of Maximum Gust, and Total Hourly Precipitation

- Updated national and regional climate services offices contacts and prices information

- Addition of station inventory lists for 1981-2010, 1971-2000, and 1961-1990 Normals.

If you haven't already, please take our survey and provide feedback about our website: https://eccc.sondage-survey.ca/f/LanguageSelection.aspx?s=442ca660-fcf1-47c0-95a9-59707d6fd709

Hourly Data Report for March 13, 2021

OTTAWA INTL A
ONTARIO
Current Station Operator: NAVCAN

45°19'00.000" N
75°40'00.000" W
114.90 m
6106001
71628
YOW

Download Data

Hourly Data (March 2021)
Hourly Data Report for March 13, 2021
TIME
LST
Temp Definition
°C
Dew Point Definition
°C
Rel Hum Definition
%
Precip. Amount Definition
mm

Wind Dir Definition
10's deg

Wind Spd Definition
km/h
Visibility Definition
km
Stn Press Definition
kPa
Hmdx Definition


Wind Chill Definition


Weather Definition


00:00 -6.0 -13.0 58   29 35 24.1 100.98   -15 LegendNANA
01:00 -6.7 -12.9 62   29 33 24.1 101.10   -16 Mainly Clear
02:00 -7.3 -13.6 61   31 35 24.1 101.19   -17 LegendNANA
03:00 -8.2 -14.6 60   30 36 24.1 101.28   -18 LegendNANA
04:00 -8.6 -14.1 65   31 36 24.1 101.31   -18 Clear
05:00 -8.9 -14.0 67   30 22 24.1 101.35   -17 LegendNANA
06:00 -9.2 -14.3 66   29 23 24.1 101.41   -17 LegendNANA
07:00 -9.2 -13.8 69   30 16 24.1 101.38   -16 Clear
08:00 -8.7 -14.0 66   30 21 24.1 101.41   -16 LegendNANA
09:00 -8.4 -13.8 65   27 20 24.1 101.39   -16 LegendNANA
10:00 -7.6 -13.2 64   26 18 24.1 101.35   -14 Mainly Clear
11:00 -6.8 -13.3 60   25 17 24.1 101.23   -13 LegendNANA
12:00 -5.0 -12.2 57   27 16 24.1 101.10   -11 LegendNANA
13:00 -3.2 -12.1 51   27 22 24.1 100.96   -10 Mostly Cloudy
14:00 -2.5 -12.2 47   30 17 24.1 100.78   -8 LegendNANA
15:00 -2.1 -12.9 44   29 13 24.1 100.66   -7 LegendNANA
16:00 -1.6 -12.1 45   31 8 24.1 100.54   -5 Mostly Cloudy
17:00 -1.4 -10.8 49   31 11 24.1 100.44   -5 LegendNANA
18:00 -0.9 -11.2 46   26 20 24.1 100.45   -6 LegendNANA
19:00 -0.9 -9.5 52   24 16 24.1 100.41   -6 Cloudy
20:00 -0.9 -10.5 49   23 17 24.1 100.30   -6 LegendNANA
21:00 -0.9 -10.1 50   23 20 24.1 100.18   -6 LegendNANA
22:00 -0.7 -9.1 53   23 13 24.1 100.13   -5 Cloudy
23:00 -0.1 -7.9 56   25 19 24.1 100.09   -5 LegendNANA

Notes on Data Quality.

Legend

  • E = Estimated
  • M = Missing
  • NA = Not Available*
  • [empty] = Indicates an unobserved value
Date modified: